Weather History for Ely, NV

Change the Weather History Date:

Sunday, October 28, 2012

  Actual Average Record
Temperature  
Mean Temperature 46 °F 41 °F  
Max Temperature 65 °F 57 °F 77 °F (1968)
Min Temperature 26 °F 25 °F 5 °F (1970)
Degree Days  
Heating Degree Days 19 24  
Month to date heating degree days 460 537  
Since 1 July heating degree days 625 853  
Cooling Degree Days 0 0  
Month to date cooling degree days 0 0  
Year to date cooling degree days 314 218  
Moisture  
Dew Point 25 °F    
Average Humidity 54    
Maximum Humidity 81    
Minimum Humidity 27    
Precipitation  
Precipitation 0.00 in 0.03 in 0.68 in (1981)
Month to date precipitation 0.91 0.90  
Year to date precipitation 10.05 8.37  
Snow  
Snow 0.00 in 0.20 in 3.30 in (1981)
Month to date snowfall 2.1 2.6  
Since 1 July snowfall 2.1 3.0  
Since 1 September snowfall 2.1 3.0  
Snow Depth 0.00 in    
Sea Level Pressure  
Sea Level Pressure 30.13 in    
Wind  
Wind Speed 8 mph (South)    
Max Wind Speed 23 mph    
Max Gust Speed 100 mph    
Visibility 10 miles    
Events      
T = Trace of Precipitation, MM = Missing Value Source: NWS Daily Summary

Daily Weather History Graph

Daily Weather History Graph

Search for Another Location

Airport:

Trip Planner

Search our weather history database for the weather conditions in past years. The results will help you decide how hot, cold, wet, or windy it might be!

Date:

Astronomy

Oct. 28, 2012 Rise Set
Actual Time 7:03 AM PDT 5:42 PM PDT
Civil Twilight 6:35 AM PDT 6:09 PM PDT
Nautical Twilight 6:04 AM PDT 6:41 PM PDT
Astronomical Twilight 5:33 AM PDT 7:12 PM PDT
Moon 5:02 PM PDT (10/28) 6:00 AM PDT (10/28)
Length of Visible Light 11h 33m
Length of Day
10h 38m
Waxing Gibbous, 99% of the Moon is Illuminated
Oct 28
Waxing Gibbous
Oct 29
Full
Nov 6
Last Quarter
Nov 13
New
Nov 20
First Quarter

Hourly Weather History & Observations

Time (PDT) Temp. Windchill Dew Point Humidity Pressure Visibility Wind Dir Wind Speed Gust Speed Precip Events Conditions
12:53 AM 30.0 °F 21.1 °F 23.0 °F 75% 30.15 in 10.0 mi South 10.4 mph - N/A   Clear
1:53 AM 30.0 °F 20.0 °F 23.0 °F 75% 30.14 in 10.0 mi South 12.7 mph - N/A   Clear
2:53 AM 30.0 °F 20.0 °F 21.9 °F 72% 30.14 in 10.0 mi SSE 12.7 mph - N/A   Clear
3:53 AM 28.9 °F 19.2 °F 21.9 °F 75% 30.14 in 10.0 mi South 11.5 mph - N/A   Clear
4:53 AM 28.0 °F 17.5 °F 21.0 °F 75% 30.17 in 10.0 mi South 12.7 mph - N/A   Clear
5:53 AM 26.1 °F 16.8 °F 21.0 °F 81% 30.20 in 10.0 mi South 9.2 mph - N/A   Clear
6:53 AM 28.0 °F 17.5 °F 21.9 °F 78% 30.24 in 10.0 mi South 12.7 mph - N/A   Clear
7:53 AM 28.9 °F 18.6 °F 21.9 °F 75% 30.26 in 10.0 mi South 12.7 mph - N/A   Clear
8:53 AM 39.0 °F 31.8 °F 25.0 °F 57% 30.22 in 10.0 mi South 11.5 mph - N/A   Clear
9:53 AM 46.4 °F 41.9 °F 26.6 °F 46% 30.24 in 10.0 mi South 9.2 mph - N/A   Clear
10:53 AM 55.0 °F - 27.0 °F 34% 30.15 in 10.0 mi Calm Calm - N/A   Clear
11:53 AM 61.0 °F - 30.0 °F 31% 30.11 in 10.0 mi Calm Calm - N/A   Clear
12:53 PM 63.0 °F - 30.0 °F 29% 30.07 in 10.0 mi Variable 4.6 mph - N/A   Clear
1:53 PM 64.0 °F - 30.0 °F 28% 30.05 in 10.0 mi Calm Calm - N/A   Clear
2:53 PM 63.0 °F - 28.9 °F 28% 30.03 in 10.0 mi Variable 3.5 mph - N/A   Clear
3:53 PM 63.0 °F - 28.0 °F 27% 30.04 in 10.0 mi WSW 8.1 mph - N/A   Clear
4:53 PM 61.0 °F - 27.0 °F 27% 30.05 in 10.0 mi WSW 6.9 mph - N/A   Clear
5:53 PM 57.0 °F - 25.0 °F 29% 30.09 in 10.0 mi SW 9.2 mph - N/A   Clear
6:53 PM 48.0 °F - 28.0 °F 46% 30.14 in 10.0 mi SSE 9.2 mph - N/A   Clear
7:53 PM 43.0 °F 37.7 °F 28.0 °F 56% 30.16 in 10.0 mi South 9.2 mph - N/A   Clear
8:53 PM 39.9 °F - 27.0 °F 60% 30.14 in 10.0 mi Calm Calm - N/A   Clear
9:53 PM 39.0 °F 33.4 °F 26.1 °F 60% 30.14 in 10.0 mi SSE 8.1 mph - N/A   Clear
10:53 PM 37.0 °F 29.3 °F 25.0 °F 62% 30.11 in 10.0 mi South 11.5 mph 100.1 mph N/A   Clear
11:53 PM 36.0 °F 28.0 °F 25.0 °F 64% 30.09 in 10.0 mi South 11.5 mph - N/A   Clear